Location: Noulens
(43.8099°N, 0.1664°E)
Time: 17:11:38
(UTC+00:00)

H-2A R/B - Pass Details

Date: 07 June 2020
Orbit: 577 x 656 km, 98.5° (Epoch: 08 July)

Event Time Altitude Azimuth Distance (km) Brightness Sun altitude
Rises 03:15:56 0° 168° (SSE) 2,915 5.2 -9.5°
Reaches altitude 10° 03:18:07 10° 169° (S) 2,022 4.4 -9.2°
Maximum altitude 03:22:32 79° 257° (WSW) 665 2.1 -8.6°
Drops below altitude 10° 03:27:03 10° 344° (NNW) 2,070 5.1 -8.0°
Sets 03:29:18 0° 346° (NNW) 2,990 6.0 -7.7°
